Hourly Weather Roundup
Issued by NWS Central Illinois

Home | Current Version | Previous Version | Text Only | Print | Product List | Glossary On
Versions: 1 2 3 4 5 6 7 8 9 10 11 12 13 14 15 16 17 18 19 20 21 22 23 24 25 26 27 28 29 30 31 32 33 34 35 36 37 38 39 40 41 42 43 44 45 46 47 48 49 50
458
NZUS43 KILX 060110
HWRILX

AREA WEATHER ROUNDUP
NATIONAL WEATHER SERVICE, LINCOLN IL
800 PM CDT THU MAY 05 2016


CITY           SKY/WX    TMP DP  RH WIND       PRES   REMARKS
BLOOMINGTON    CLEAR     60  42  51 NW7       29.99S
CHAMPAIGN      PTCLDY    58  42  55 N7        29.97R
DANVILLE       CLEAR     55  43  64 N9        29.94S
DECATUR        CLEAR     60  42  51 NW9       29.98R
EFFINGHAM      CLEAR     60  46  59 CALM      29.98S
FLORA          CLEAR     60  45  56 NW3       29.97S
GALESBURG      CLEAR     61  37  40 CALM      29.99F
JACKSONVILLE   CLEAR     61  39  44 NW3       30.00R
LACON          CLEAR     60  41  49 CALM      29.98S
LAWRENCEVILLE  CLEAR     60  44  55 NW3       29.95S
LITCHFIELD     CLEAR     58  44  59 N3        30.00R
$$


CITY           SKY/WX    TMP DP  RH WIND       PRES   REMARKS
LINCOLN        CLEAR     62  44  51 CALM      29.99R
MACOMB         CLEAR     60  37  42 NW5       30.02S
MATTOON        CLEAR     58  41  53 N7        29.96R
MT CARMEL AP   CLEAR     57  43  58 CALM      29.96R
OLNEY-NOBLE AP CLEAR     55  48  76 CALM      29.97S
PARIS          CLEAR     59  43  55 CALM      29.97R
PEORIA         CLEAR     62  39  42 NW3       29.99S
PONTIAC        CLEAR     61  45  55 NW6       29.98S
RANTOUL        CLEAR     61  45  54 NE7       29.97R
ROBINSON       PTCLDY    56  44  64 NW3       29.96S
SPRINGFIELD    CLEAR     63  42  46 NW6       29.99S
TAYLORVILLE    CLEAR     59  45  58 NW5       29.99S
$$

...REGIONAL REPORTS...


CITY           SKY/WX    TMP DP  RH WIND       PRES   REMARKS
CHICAGO O`HARE PTCLDY    54  37  52 NE6       29.97R
KANKAKEE       CLEAR     55  43  62 NE5       29.97S
MOLINE         CLEAR     64  35  34 CALM      29.98S
MOUNT STERLING CLEAR     58  38  47 N6        30.00S
MOUNT VERNON   CLEAR     55  43  62 CALM      29.99S
PITTSFIELD     CLEAR     61  39  45 CALM      30.02S
QUINCY         CLEAR     61  40  45 N5        30.01S
ROCKFORD       PTCLDY    59  38  45 NW5       29.99S
$$


CITY           SKY/WX    TMP DP  RH WIND       PRES   REMARKS
BURLINGTON     CLEAR     63  37  38 N3        30.00S
CEDAR RAPIDS   CLEAR     64  36  35 CALM      29.98S
DES MOINES     PTCLDY    68  36  30 S6        30.00S
KIRKSVILLE     CLEAR     59  37  44 CALM      30.03S
OTTUMWA        CLEAR     63  34  33 CALM      30.00F
ST LOUIS       PTCLDY    63  42  46 N5        30.01R
$$


CITY           SKY/WX    TMP DP  RH WIND       PRES   REMARKS
TERRE HAUTE    CLEAR     59  41  51 N6        29.94S
EVANSVILLE     CLEAR     54  47  77 W6        29.96S
INDIANAPOLIS   PTCLDY    58  42  55 NW14      29.91R
LAFAYETTE      CLEAR     55  42  61 N9        29.95R
MADISON        MOCLDY    59  35  40 CALM      29.95F
MILWAUKEE      MOCLDY    50  36  58 CALM      29.97F
$$






USA.gov is the U.S. government's official web portal to all federal, state and local government web resources and services.